Home > Weather > Kenora > Past weeks

Flag for Canada Weather for the Past 2 Weeks in Kenora, Ontario, Canada

Now
59 °F

Overcast.


Feels Like: 59 °F
Forecast: 45 / 56 °F
Wind: 5 mph from Southwest

Location: Kenora

Current Time: May 2, 2016 at 9:15:59 PM

Latest Report: May 2, 2016 at 8:00 PM


Visibility: 15 mi

Pressure: 29.94 "Hg

Humidity: 27%

Dew Point: 25 °F

Location of KenoraLocation

Historic Weather in Kenora — Graph

°F

Kenora Temperature Yesterday

Maximum temperature yesterday: 63 °F (at 4:00 PM)
Minimum temperature yesterday: 34 °F (at 6:00 AM)
Average temperature yesterday: 50 °F

High & Low Weather Summary for the Past Weeks

 TemperatureHumidityPressure
High66 °F (Apr 19, 5:00 PM)100% (Apr 17, 8:00 PM)30.57 "Hg (Apr 17, 8:00 PM)
Low27 °F (Apr 22, 5:00 AM)17% (Apr 27, 2:00 PM)29.88 "Hg (Apr 21, 1:00 AM)
Average45 °F50%30.19 "Hg
* Reported Apr 17 8:00 PM — May 2 8:00 PM, Kenora, Weather by CustomWeather, © 2016

Note: Actual official high and low records may vary slightly from our data, if they occured in-between our weather recording intervals... More about our weather records

Advertising

Kenora Weather History for the Previous 24 Hours

Scroll right to see more
 ConditionsComfort  
Time TempWeatherWind HumidityBarometerVisibility
8:00 PM
Mon, May 2
59 °FOvercast.5 mph27%29.94 "Hg15 mi
7:00 PM63 °FOvercast.8 mph22%29.96 "Hg15 mi
6:00 PM63 °FOvercast.10 mph22%29.99 "Hg15 mi
5:00 PM63 °FPartly sunny.9 mph25%30.00 "Hg15 mi
4:00 PM64 °FPartly sunny.14 mph26%30.01 "Hg15 mi
3:00 PM64 °FPartly sunny.13 mph24%30.02 "Hg15 mi
2:00 PM64 °FPartly sunny.14 mph26%30.04 "Hg15 mi
1:00 PM63 °FScattered clouds.12 mph27%30.06 "Hg15 mi
12:00 PM63 °FScattered clouds.9 mph27%30.08 "Hg15 mi
11:00 AM61 °FPassing clouds.6 mph27%30.09 "Hg15 mi
10:00 AM59 °FScattered clouds.6 mph29%30.11 "Hg15 mi
9:00 AM55 °FPartly sunny.3 mph41%30.11 "Hg15 mi
8:00 AM48 °FPartly sunny.3 mph50%30.11 "Hg15 mi
7:00 AM45 °FPartly sunny.3 mph57%30.11 "Hg15 mi
6:00 AM43 °FPartly sunny.6 mph57%30.11 "Hg15 mi
5:00 AM43 °FPassing clouds.2 mph57%30.11 "Hg15 mi
4:00 AM46 °FPassing clouds.2 mph46%30.11 "Hg15 mi
3:00 AM46 °FPassing clouds.5 mph50%30.11 "Hg15 mi
2:00 AM46 °FPassing clouds.5 mph50%30.11 "Hg15 mi
1:00 AM46 °FPassing clouds.6 mph50%30.13 "Hg15 mi
11:00 PM
Sun, May 1
48 °FPassing clouds.6 mph46%30.15 "Hg15 mi
10:00 PM50 °FPassing clouds.5 mph43%30.16 "Hg15 mi
9:00 PM54 °FPassing clouds.6 mph38%30.16 "Hg15 mi
Weather by CustomWeather, © 2016

See weather overviewHow to use our weather pages